Wind from 250 at 10 knots

Air temperature 2.0° C
Visibility: greater than 5.4 NM
Dewpoint -6.0° C

Last reported at 2014-Apr-23 17:20 UTC.
Time now 2014-Apr-23 19:00 UTC

Location: N 68°37' E 027°25'.
View on Google Maps.

See reports from other nearby stations

Tides Stations Pressure Air Temp Water Temp Dewpoint Dewpoint depression Visibility Wind Speed Wind Dir Waves Ship positions

  
sailing weather and tide predictions

IVALO weather

date/time (UTC)wind fromknots sea level pressurealtimeterstation pressurevisibilityair tempwater tempwave heightnotes
2014-Apr-23 17:20 250 10 5.4 2.0
2014-Apr-23 16:50 250 8 5.4 2.0
2014-Apr-23 16:20 260 10 2.0
2014-Apr-23 15:50 280 12 5.4 2.0
2014-Apr-23 15:20 260 12 5.4 2.0
2014-Apr-23 14:50 280 12 5.4 2.0
2014-Apr-23 14:20 270 11 5.4 2.0
2014-Apr-23 13:50 280 12 5.4 2.0
2014-Apr-23 13:20 270 14 5.4 2.0
2014-Apr-23 12:50 270 13 5.4 2.0
2014-Apr-23 12:20 270 12 5.4 2.0
2014-Apr-23 11:50 280 12 5.4 2.0
2014-Apr-23 11:20 270 12 5.4 1.0
2014-Apr-23 10:50 280 11 5.4 2.0
2014-Apr-23 10:20 270 10 5.4 2.0
2014-Apr-23 09:50 280 10 5.4 1.0 Light snow showers.
2014-Apr-23 09:20 280 12 5.4 1.0 Light snow showers.
2014-Apr-23 08:50 280 12 5.4-0.0 Light snow.
2014-Apr-23 08:20 270 9 5.4-0.0 Light snow showers.
2014-Apr-23 07:50 280 6 5.4-1.0 Light snow showers.
2014-Apr-23 07:20 290 8 5.4-0.0
2014-Apr-23 06:50 290 9 5.4-0.0 Light precipitation showers.
2014-Apr-23 06:20 300 10 5.4-1.0
2014-Apr-23 05:50 300 8 5.4-1.0
2014-Apr-23 05:20 310 8 5.4-1.0
2014-Apr-23 04:50 300 6 5.4-1.0
2014-Apr-23 04:20 300 6 5.4-1.0
2014-Apr-23 03:50 310 7 5.4-2.0
2014-Apr-23 03:20 300 5 5.4-2.0
2014-Apr-23 02:50 300 5 5.4-2.0
2014-Apr-23 02:20 290 6 5.4-2.0
2014-Apr-23 01:50 310 6 5.4-2.0
2014-Apr-23 01:20 300 8 5.4-2.0
2014-Apr-23 00:50 290 6 -2.0
2014-Apr-23 00:20 310 9 5.4-2.0 Light snow showers.
2014-Apr-22 23:50 320 8 5.4-2.0 Light snow showers.
2014-Apr-22 23:20 320 3 5.4-2.0 Light snow.
2014-Apr-22 22:50 320 9 2.5-2.0 Light snow.
2014-Apr-22 22:20 310 9 4.3-1.0 Light snow.
2014-Apr-22 21:50 310 11 gusting 20 5.4-1.0
2014-Apr-22 21:20 310 9 5.4-1.0
2014-Apr-22 20:50 300 10 5.4-1.0
2014-Apr-22 20:20 310 12 5.4-0.0
2014-Apr-22 19:50 290 11 5.4-0.0 Light snow.
2014-Apr-22 19:20 300 14 5.4-0.0
2014-Apr-22 18:50 290 13 5.4-0.0
2014-Apr-22 18:20 300 14 gusting 24 5.4 1.0
2014-Apr-22 17:50 300 10 5.4 1.0 Light rain.
2014-Apr-22 17:20 310 9 gusting 23 5.4 1.0 Light rain.
2014-Apr-22 16:50 300 15 5.4 1.0 Light rain.
2014-Apr-22 16:20 300 10 5.4 1.0 Light snow.
2014-Apr-22 15:50 300 12 5.4 2.0
2014-Apr-22 15:20 300 15 5.4 2.0
2014-Apr-22 14:50 300 17 gusting 27 5.4 2.0 Light precipitation showers.
2014-Apr-22 14:20 300 17 gusting 29 5.4 3.0
2014-Apr-22 13:50 300 20 gusting 32 5.4 3.0 Light precipitation showers.
2014-Apr-22 13:20 310 20 gusting 30 5.4 3.0
2014-Apr-22 12:50 310 13 5.4 4.0
2014-Apr-22 12:20 300 11 gusting 20 5.4 2.0 Light rain showers.
2014-Apr-22 11:50 300 15 5.4 3.0 Light precipitation showers.
2014-Apr-22 11:20 290 20 gusting 34 5.4 3.0
2014-Apr-22 10:50 270 17 gusting 27 5.4 3.0
2014-Apr-22 10:20 290 18 5.4 3.0
2014-Apr-22 09:50 290 20 gusting 32 5.4 3.0
2014-Apr-22 09:20 280 22 gusting 34 5.4 3.0
2014-Apr-22 08:50 270 20 gusting 32 3.0
2014-Apr-22 08:20 260 22 gusting 32 3.0
2014-Apr-22 07:50 270 20 gusting 33 2.0
2014-Apr-22 07:20 260 18 gusting 27 2.0
2014-Apr-22 06:50 250 20 5.4 2.0
2014-Apr-22 06:20 270 18 5.4 2.0
2014-Apr-22 05:50 280 18 5.4 2.0
2014-Apr-22 05:20 270 16 gusting 27 5.4 2.0
2014-Apr-22 04:50 260 14 1.0
2014-Apr-22 04:20 290 10 5.4 1.0 Light rain showers.
2014-Apr-22 03:50 270 10 5.4 2.0
2014-Apr-22 03:20 270 12 5.4 2.0 Light rain showers.
2014-Apr-22 02:50 270 12 5.4 2.0
2014-Apr-22 02:20 270 10 2.0
2014-Apr-22 01:50 260 11 2.0
2014-Apr-22 01:20 260 12 3.0
2014-Apr-22 00:50 260 9 2.0
2014-Apr-22 00:20 270 10 3.0
2014-Apr-21 23:50 240 6 2.0
2014-Apr-21 23:20 240 7 2.0
2014-Apr-21 22:50 220 7 3.0
2014-Apr-21 22:20 230 8 3.0
2014-Apr-21 21:50 240 9 4.0
2014-Apr-21 21:20 240 9 4.0
2014-Apr-21 20:50 250 8 5.0
2014-Apr-21 20:20 210 3 4.0
2014-Apr-21 19:50 4.0
2014-Apr-21 19:20 200 2 3.0